Year,Month,Day,Hour,Minute,Value (Times are PST for temperature in C)
2012,06,08,00,00,9.50
2012,06,08,00,01,9.50
2012,06,08,00,02,9.50
2012,06,08,00,03,9.50
2012,06,08,00,04,9.50
2012,06,08,00,05,9.50
2012,06,08,00,06,9.60
2012,06,08,00,07,9.60
2012,06,08,00,08,9.60
2012,06,08,00,09,9.60
2012,06,08,00,10,9.50
2012,06,08,00,11,9.50
2012,06,08,00,12,9.50
2012,06,08,00,13,9.50
2012,06,08,00,14,9.50
2012,06,08,00,15,9.50
2012,06,08,00,16,9.50
2012,06,08,00,17,9.50
2012,06,08,00,18,9.50
2012,06,08,00,19,9.40
2012,06,08,00,20,9.40
2012,06,08,00,21,9.40
2012,06,08,00,22,9.40
2012,06,08,00,23,9.40
2012,06,08,00,24,9.40
2012,06,08,00,25,9.40
2012,06,08,00,26,9.40
2012,06,08,00,27,9.40
2012,06,08,00,28,9.40
2012,06,08,00,29,9.40
2012,06,08,00,30,9.40
2012,06,08,00,31,9.40
2012,06,08,00,32,9.40
2012,06,08,00,33,9.30
2012,06,08,00,34,9.30
2012,06,08,00,35,9.30
2012,06,08,00,36,9.30
2012,06,08,00,37,9.30
2012,06,08,00,38,9.30
2012,06,08,00,39,9.30
2012,06,08,00,40,9.40
2012,06,08,00,41,9.40
2012,06,08,00,42,9.40
2012,06,08,00,43,9.40
2012,06,08,00,44,9.40
2012,06,08,00,45,9.40
2012,06,08,00,46,9.40
2012,06,08,00,47,9.40
2012,06,08,00,48,9.40
2012,06,08,00,49,9.40
2012,06,08,00,50,9.40
2012,06,08,00,51,9.40
2012,06,08,00,52,9.40
2012,06,08,00,53,9.40
2012,06,08,00,54,9.40
2012,06,08,00,55,9.40
2012,06,08,00,56,9.40
2012,06,08,00,57,9.40
2012,06,08,00,58,9.40
2012,06,08,00,59,9.40
2012,06,08,01,00,9.40
2012,06,08,01,01,9.40
2012,06,08,01,02,9.30
2012,06,08,01,03,9.30
2012,06,08,01,04,9.30
2012,06,08,01,05,9.30
2012,06,08,01,06,9.30
2012,06,08,01,07,9.30
2012,06,08,01,08,9.30
2012,06,08,01,09,9.30
2012,06,08,01,10,9.30
2012,06,08,01,11,9.30
2012,06,08,01,12,9.30
2012,06,08,01,13,9.30
2012,06,08,01,14,9.30
2012,06,08,01,15,9.30
2012,06,08,01,16,9.30
2012,06,08,01,17,9.30
2012,06,08,01,18,9.30
2012,06,08,01,19,9.30
2012,06,08,01,20,9.30
2012,06,08,01,21,9.30
2012,06,08,01,22,9.30
2012,06,08,01,23,9.30
2012,06,08,01,24,9.30
2012,06,08,01,25,9.30
2012,06,08,01,26,9.30
2012,06,08,01,27,9.30
2012,06,08,01,28,9.40
2012,06,08,01,29,9.40
2012,06,08,01,30,9.40
2012,06,08,01,31,9.40
2012,06,08,01,32,9.40
2012,06,08,01,33,9.40
2012,06,08,01,34,9.40
2012,06,08,01,35,9.40
2012,06,08,01,36,9.40
2012,06,08,01,37,9.40
2012,06,08,01,38,9.40
2012,06,08,01,39,9.40
2012,06,08,01,40,9.40
2012,06,08,01,41,9.40
2012,06,08,01,42,9.40
2012,06,08,01,43,9.40
2012,06,08,01,44,9.40
2012,06,08,01,45,9.40
2012,06,08,01,46,9.40
2012,06,08,01,47,9.30
2012,06,08,01,48,9.30
2012,06,08,01,49,9.30
2012,06,08,01,50,9.30
2012,06,08,01,51,9.30
2012,06,08,01,52,9.30
2012,06,08,01,53,9.30
2012,06,08,01,54,9.30
2012,06,08,01,55,9.30
2012,06,08,01,56,9.30
2012,06,08,01,57,9.30
2012,06,08,01,58,9.30
2012,06,08,01,59,9.30
2012,06,08,02,00,9.30
2012,06,08,02,01,9.30
2012,06,08,02,02,9.40
2012,06,08,02,03,9.40
2012,06,08,02,04,9.40
2012,06,08,02,05,9.40
2012,06,08,02,06,9.40
2012,06,08,02,07,9.40
2012,06,08,02,08,9.40
2012,06,08,02,09,9.30
2012,06,08,02,10,9.30
2012,06,08,02,11,9.30
2012,06,08,02,12,9.30
2012,06,08,02,13,9.30
2012,06,08,02,14,9.30
2012,06,08,02,15,9.30
2012,06,08,02,16,9.30
2012,06,08,02,17,9.30
2012,06,08,02,18,9.30
2012,06,08,02,19,9.30
2012,06,08,02,20,9.30
2012,06,08,02,21,9.30
2012,06,08,02,22,9.30
2012,06,08,02,23,9.30
2012,06,08,02,24,9.30
2012,06,08,02,25,9.30
2012,06,08,02,26,9.30
2012,06,08,02,27,9.30
2012,06,08,02,28,9.30
2012,06,08,02,29,9.30
2012,06,08,02,30,9.30
2012,06,08,02,31,9.30
2012,06,08,02,32,9.30
2012,06,08,02,33,9.30
2012,06,08,02,34,9.30
2012,06,08,02,35,9.30
2012,06,08,02,36,9.30
2012,06,08,02,37,9.30
2012,06,08,02,38,9.30
2012,06,08,02,39,9.30
2012,06,08,02,40,9.30
2012,06,08,02,41,9.30
2012,06,08,02,42,9.30
2012,06,08,02,43,9.30
2012,06,08,02,44,9.30
2012,06,08,02,45,9.30
2012,06,08,02,46,9.30
2012,06,08,02,47,9.30
2012,06,08,02,48,9.30
2012,06,08,02,49,9.30
2012,06,08,02,50,9.30
2012,06,08,02,51,9.30
2012,06,08,02,52,9.30
2012,06,08,02,53,9.30
2012,06,08,02,54,9.30
2012,06,08,02,55,9.30
2012,06,08,02,56,9.30
2012,06,08,02,57,9.30
2012,06,08,02,58,9.30
2012,06,08,02,59,9.30
2012,06,08,03,00,9.30
2012,06,08,03,01,9.30
2012,06,08,03,02,9.30
2012,06,08,03,03,9.30
2012,06,08,03,04,9.30
2012,06,08,03,05,9.30
2012,06,08,03,06,9.30
2012,06,08,03,07,9.30
2012,06,08,03,08,9.30
2012,06,08,03,09,9.30
2012,06,08,03,10,9.30
2012,06,08,03,11,9.30
2012,06,08,03,12,9.30
2012,06,08,03,13,9.30
2012,06,08,03,14,9.30
2012,06,08,03,15,9.30
2012,06,08,03,16,9.20
2012,06,08,03,17,9.20
2012,06,08,03,18,9.20
2012,06,08,03,19,9.20
2012,06,08,03,20,9.20
2012,06,08,03,21,9.20
2012,06,08,03,22,9.20
2012,06,08,03,23,9.20
2012,06,08,03,24,9.20
2012,06,08,03,25,9.20
2012,06,08,03,26,9.20
2012,06,08,03,27,9.10
2012,06,08,03,28,9.10
2012,06,08,03,29,9.10
2012,06,08,03,30,9.10
2012,06,08,03,31,9.10
2012,06,08,03,32,9.10
2012,06,08,03,33,9.10
2012,06,08,03,34,9.10
2012,06,08,03,35,9.10
2012,06,08,03,36,9.10
2012,06,08,03,37,9.10
2012,06,08,03,38,9.10
2012,06,08,03,39,9.10
2012,06,08,03,40,9.00
2012,06,08,03,41,9.00
2012,06,08,03,42,9.00
2012,06,08,03,43,8.90
2012,06,08,03,44,8.90
2012,06,08,03,45,8.90
2012,06,08,03,46,8.90
2012,06,08,03,47,8.90
2012,06,08,03,48,8.90
2012,06,08,03,49,8.90
2012,06,08,03,50,8.80
2012,06,08,03,51,8.80
2012,06,08,03,52,8.80
2012,06,08,03,53,8.80
2012,06,08,03,54,8.80
2012,06,08,03,55,8.80
2012,06,08,03,56,8.80
2012,06,08,03,57,8.80
2012,06,08,03,58,8.70
2012,06,08,03,59,8.70
2012,06,08,04,00,8.70
2012,06,08,04,01,8.70
2012,06,08,04,02,8.70
2012,06,08,04,03,8.70
2012,06,08,04,04,8.70
2012,06,08,04,05,8.70
2012,06,08,04,06,8.70
2012,06,08,04,07,8.70
2012,06,08,04,08,8.70
2012,06,08,04,09,8.70
2012,06,08,04,10,8.70
2012,06,08,04,11,8.70
2012,06,08,04,12,8.70
2012,06,08,04,13,8.60
2012,06,08,04,14,8.60
2012,06,08,04,15,8.60
2012,06,08,04,16,8.60
2012,06,08,04,17,8.60
2012,06,08,04,18,8.60
2012,06,08,04,19,8.60
2012,06,08,04,20,8.60
2012,06,08,04,21,8.60
2012,06,08,04,22,8.60
2012,06,08,04,23,8.60
2012,06,08,04,24,8.60
2012,06,08,04,25,8.50
2012,06,08,04,26,8.50
2012,06,08,04,27,8.50
2012,06,08,04,28,8.50
2012,06,08,04,29,8.50
2012,06,08,04,30,8.50
2012,06,08,04,31,8.50
2012,06,08,04,32,8.50
2012,06,08,04,33,8.50
2012,06,08,04,34,8.50
2012,06,08,04,35,8.50
2012,06,08,04,36,8.50
2012,06,08,04,37,8.50
2012,06,08,04,38,8.50
2012,06,08,04,39,8.50
2012,06,08,04,40,8.50
2012,06,08,04,41,8.60
2012,06,08,04,42,8.60
2012,06,08,04,43,8.60
2012,06,08,04,44,8.60
2012,06,08,04,45,8.60
2012,06,08,04,46,8.60
2012,06,08,04,47,8.60
2012,06,08,04,48,8.60
2012,06,08,04,49,8.60
2012,06,08,04,50,8.60
2012,06,08,04,51,8.60
2012,06,08,04,52,8.60
2012,06,08,04,53,8.60
2012,06,08,04,54,8.60
2012,06,08,04,55,8.60
2012,06,08,04,56,8.70
2012,06,08,04,57,8.70
2012,06,08,04,58,8.70
2012,06,08,04,59,8.70
2012,06,08,05,00,8.70
2012,06,08,05,01,8.70
2012,06,08,05,02,8.70
2012,06,08,05,03,8.70
2012,06,08,05,04,8.60
2012,06,08,05,05,8.60
2012,06,08,05,06,8.60
2012,06,08,05,07,8.60
2012,06,08,05,08,8.60
2012,06,08,05,09,8.60
2012,06,08,05,10,8.60
2012,06,08,05,11,8.60
2012,06,08,05,12,8.50
2012,06,08,05,13,8.50
2012,06,08,05,14,8.50
2012,06,08,05,15,8.50
2012,06,08,05,16,8.50
2012,06,08,05,17,8.40
2012,06,08,05,18,8.40
2012,06,08,05,19,8.40
2012,06,08,05,20,8.40
2012,06,08,05,21,8.40
2012,06,08,05,22,8.40
2012,06,08,05,23,8.40
2012,06,08,05,24,8.40
2012,06,08,05,25,8.40
2012,06,08,05,26,8.40
2012,06,08,05,27,8.40
2012,06,08,05,28,8.40
2012,06,08,05,29,8.40
2012,06,08,05,30,8.40
2012,06,08,05,31,8.40
2012,06,08,05,32,8.40
2012,06,08,05,33,8.40
2012,06,08,05,34,8.40
2012,06,08,05,35,8.40
2012,06,08,05,36,8.40
2012,06,08,05,37,8.40
2012,06,08,05,38,8.40
2012,06,08,05,39,8.40
2012,06,08,05,40,8.40
2012,06,08,05,41,8.40
2012,06,08,05,42,8.40
2012,06,08,05,43,8.40
2012,06,08,05,44,8.40
2012,06,08,05,45,8.40
2012,06,08,05,46,8.50
2012,06,08,05,47,8.50
2012,06,08,05,48,8.50
2012,06,08,05,49,8.50
2012,06,08,05,50,8.50
2012,06,08,05,51,8.60
2012,06,08,05,52,8.60
2012,06,08,05,53,8.60
2012,06,08,05,54,8.60
2012,06,08,05,55,8.60
2012,06,08,05,56,8.60
2012,06,08,05,57,8.60
2012,06,08,05,58,8.70
2012,06,08,05,59,8.70
2012,06,08,06,00,8.70
2012,06,08,06,01,8.70
2012,06,08,06,02,8.70
2012,06,08,06,03,8.80
2012,06,08,06,04,8.80
2012,06,08,06,05,8.80
2012,06,08,06,06,8.80
2012,06,08,06,07,8.80
2012,06,08,06,08,8.80
2012,06,08,06,09,8.80
2012,06,08,06,10,8.90
2012,06,08,06,11,8.90
2012,06,08,06,12,8.90
2012,06,08,06,13,8.90
2012,06,08,06,14,8.90
2012,06,08,06,15,9.00
2012,06,08,06,16,9.00
2012,06,08,06,17,9.00
2012,06,08,06,18,9.10
2012,06,08,06,19,9.10
2012,06,08,06,20,9.10
2012,06,08,06,21,9.10
2012,06,08,06,22,9.10
2012,06,08,06,23,9.10
2012,06,08,06,24,9.10
2012,06,08,06,25,9.10
2012,06,08,06,26,9.10
2012,06,08,06,27,9.10
2012,06,08,06,28,9.10
2012,06,08,06,29,9.00
2012,06,08,06,30,9.00
2012,06,08,06,31,9.00
2012,06,08,06,32,9.10
2012,06,08,06,33,9.00
2012,06,08,06,34,9.10
2012,06,08,06,35,9.10
2012,06,08,06,36,9.00
2012,06,08,06,37,9.00
2012,06,08,06,38,9.00
2012,06,08,06,39,9.00
2012,06,08,06,40,9.00
2012,06,08,06,41,9.00
2012,06,08,06,42,9.00
2012,06,08,06,43,9.00
2012,06,08,06,44,9.00
2012,06,08,06,45,9.00
2012,06,08,06,46,9.00
2012,06,08,06,47,9.00
2012,06,08,06,48,9.00
2012,06,08,06,49,9.00
2012,06,08,06,50,9.00
2012,06,08,06,51,9.00
2012,06,08,06,52,9.10
2012,06,08,06,53,9.10
2012,06,08,06,54,9.10
2012,06,08,06,55,9.10
2012,06,08,06,56,9.10
2012,06,08,06,57,9.10
2012,06,08,06,58,9.10
2012,06,08,06,59,9.10
2012,06,08,07,00,9.10
2012,06,08,07,01,9.10
2012,06,08,07,02,9.10
2012,06,08,07,03,9.10
2012,06,08,07,04,9.10
2012,06,08,07,05,9.10
2012,06,08,07,06,9.10
2012,06,08,07,07,9.20
2012,06,08,07,08,9.20
2012,06,08,07,09,9.20
2012,06,08,07,10,9.20
2012,06,08,07,11,9.30
2012,06,08,07,12,9.30
2012,06,08,07,13,9.30
2012,06,08,07,14,9.30
2012,06,08,07,15,9.30
2012,06,08,07,16,9.30
2012,06,08,07,17,9.30
2012,06,08,07,18,9.30
2012,06,08,07,19,9.30
2012,06,08,07,20,9.30
2012,06,08,07,21,9.30
2012,06,08,07,22,9.30
2012,06,08,07,23,9.30
2012,06,08,07,24,9.40
2012,06,08,07,25,9.40
2012,06,08,07,26,9.40
2012,06,08,07,27,9.50
2012,06,08,07,28,9.50
2012,06,08,07,29,9.60
2012,06,08,07,30,9.60
2012,06,08,07,31,9.60
2012,06,08,07,32,9.60
2012,06,08,07,33,9.60
2012,06,08,07,34,9.60
2012,06,08,07,35,9.60
2012,06,08,07,36,9.60
2012,06,08,07,37,9.60
2012,06,08,07,38,9.60
2012,06,08,07,39,9.70
2012,06,08,07,40,9.70
2012,06,08,07,41,9.70
2012,06,08,07,42,9.70
2012,06,08,07,43,9.70
2012,06,08,07,44,9.60
2012,06,08,07,45,9.60
2012,06,08,07,46,9.60
2012,06,08,07,47,9.60
2012,06,08,07,48,9.70
2012,06,08,07,49,9.70
2012,06,08,07,50,9.70
2012,06,08,07,51,9.80
2012,06,08,07,52,9.80
2012,06,08,07,53,9.80
2012,06,08,07,54,9.80
2012,06,08,07,55,9.80
2012,06,08,07,56,9.80
2012,06,08,07,57,9.80
2012,06,08,07,58,9.80
2012,06,08,07,59,9.90
2012,06,08,08,00,9.90
2012,06,08,08,01,9.90
2012,06,08,08,02,9.80
2012,06,08,08,03,9.80
2012,06,08,08,04,9.80
2012,06,08,08,05,9.80
2012,06,08,08,06,9.80
2012,06,08,08,07,9.80
2012,06,08,08,08,9.80
2012,06,08,08,09,9.80
2012,06,08,08,10,9.80
2012,06,08,08,11,9.80
2012,06,08,08,12,9.80
2012,06,08,08,13,9.80
2012,06,08,08,14,9.80
2012,06,08,08,15,9.80
2012,06,08,08,16,9.90
2012,06,08,08,17,9.90
2012,06,08,08,18,9.90
2012,06,08,08,19,9.90
2012,06,08,08,20,9.80
2012,06,08,08,21,9.80
2012,06,08,08,22,9.70
2012,06,08,08,23,9.70
2012,06,08,08,24,9.60
2012,06,08,08,25,9.60
2012,06,08,08,26,9.60
2012,06,08,08,27,9.60
2012,06,08,08,28,9.70
2012,06,08,08,29,9.70
2012,06,08,08,30,9.70
2012,06,08,08,31,9.70
2012,06,08,08,32,9.70
2012,06,08,08,33,9.80
2012,06,08,08,34,9.80
2012,06,08,08,35,9.90
2012,06,08,08,36,10.00
2012,06,08,08,37,10.00
2012,06,08,08,38,10.00
2012,06,08,08,39,10.10
2012,06,08,08,40,10.20
2012,06,08,08,41,10.20
2012,06,08,08,42,10.30
2012,06,08,08,43,10.30
2012,06,08,08,44,10.30
2012,06,08,08,45,10.30
2012,06,08,08,46,10.30
2012,06,08,08,47,10.30
2012,06,08,08,48,10.40
2012,06,08,08,49,10.40
2012,06,08,08,50,10.50
2012,06,08,08,51,10.50
2012,06,08,08,52,10.50
2012,06,08,08,53,10.50
2012,06,08,08,54,10.50
2012,06,08,08,55,10.50
2012,06,08,08,56,10.60
2012,06,08,08,57,10.60
2012,06,08,08,58,10.60
2012,06,08,08,59,10.60
2012,06,08,09,00,10.50
2012,06,08,09,01,10.50
2012,06,08,09,02,10.40
2012,06,08,09,03,10.40
2012,06,08,09,04,10.40
2012,06,08,09,05,10.40
2012,06,08,09,06,10.40
2012,06,08,09,07,10.40
2012,06,08,09,08,10.40
2012,06,08,09,09,10.40
2012,06,08,09,10,10.40
2012,06,08,09,11,10.50
2012,06,08,09,12,10.50
2012,06,08,09,13,10.60
2012,06,08,09,14,10.70
2012,06,08,09,15,10.70
2012,06,08,09,16,10.70
2012,06,08,09,17,10.70
2012,06,08,09,18,10.70
2012,06,08,09,19,10.70
2012,06,08,09,20,10.70
2012,06,08,09,21,10.60
2012,06,08,09,22,10.60
2012,06,08,09,23,10.50
2012,06,08,09,24,10.50
2012,06,08,09,25,10.40
2012,06,08,09,26,10.40
2012,06,08,09,27,10.40
2012,06,08,09,28,10.40
2012,06,08,09,29,10.40
2012,06,08,09,30,10.40
2012,06,08,09,31,10.40
2012,06,08,09,32,10.30
2012,06,08,09,33,10.30
2012,06,08,09,34,10.30
2012,06,08,09,35,10.30
2012,06,08,09,36,10.30
2012,06,08,09,37,10.30
2012,06,08,09,38,10.30
2012,06,08,09,39,10.40
2012,06,08,09,40,10.40
2012,06,08,09,41,10.50
2012,06,08,09,42,10.50
2012,06,08,09,43,10.60
2012,06,08,09,44,10.60
2012,06,08,09,45,10.60
2012,06,08,09,46,10.60
2012,06,08,09,47,10.60
2012,06,08,09,48,10.60
2012,06,08,09,49,10.70
2012,06,08,09,50,10.70
2012,06,08,09,51,10.80
2012,06,08,09,52,10.80
2012,06,08,09,53,10.80
2012,06,08,09,54,10.80
2012,06,08,09,55,10.70
2012,06,08,09,56,10.70
2012,06,08,09,57,10.70
2012,06,08,09,58,10.70
2012,06,08,09,59,10.70
2012,06,08,10,00,10.80
2012,06,08,10,01,10.80
2012,06,08,10,02,10.80
2012,06,08,10,03,10.80
2012,06,08,10,04,10.80
2012,06,08,10,05,10.80
2012,06,08,10,06,10.80
2012,06,08,10,07,10.90
2012,06,08,10,08,10.90
2012,06,08,10,09,10.90
2012,06,08,10,10,10.90
2012,06,08,10,11,10.90
2012,06,08,10,12,10.90
2012,06,08,10,13,10.90
2012,06,08,10,14,10.80
2012,06,08,10,15,10.90
2012,06,08,10,16,10.90
2012,06,08,10,17,10.90
2012,06,08,10,18,10.90
2012,06,08,10,19,11.00
2012,06,08,10,20,11.00
2012,06,08,10,21,11.00
2012,06,08,10,22,11.00
2012,06,08,10,23,11.00
2012,06,08,10,24,11.10
2012,06,08,10,25,11.10
2012,06,08,10,26,11.20
2012,06,08,10,27,11.30
2012,06,08,10,28,11.30
2012,06,08,10,29,11.40
2012,06,08,10,30,11.40
2012,06,08,10,31,11.40
2012,06,08,10,32,11.50
2012,06,08,10,33,11.50
2012,06,08,10,34,11.60
2012,06,08,10,35,11.60
2012,06,08,10,36,11.70
2012,06,08,10,37,11.70
2012,06,08,10,38,11.60
2012,06,08,10,39,11.60
2012,06,08,10,40,11.50
2012,06,08,10,41,11.40
2012,06,08,10,42,11.30
2012,06,08,10,43,11.30
2012,06,08,10,44,11.30
2012,06,08,10,45,11.30
2012,06,08,10,46,11.30
2012,06,08,10,47,11.30
2012,06,08,10,48,11.30
2012,06,08,10,49,11.30
2012,06,08,10,50,11.40
2012,06,08,10,51,11.40
2012,06,08,10,52,11.40
2012,06,08,10,53,11.40
2012,06,08,10,54,11.40
2012,06,08,10,55,11.40
2012,06,08,10,56,11.40
2012,06,08,10,57,11.40
2012,06,08,10,58,11.40
2012,06,08,10,59,11.50
2012,06,08,11,00,11.60
2012,06,08,11,01,11.60
2012,06,08,11,02,11.60
2012,06,08,11,03,11.70
2012,06,08,11,04,11.70
2012,06,08,11,05,11.70
2012,06,08,11,06,11.70
2012,06,08,11,07,11.80
2012,06,08,11,08,11.80
2012,06,08,11,09,11.80
2012,06,08,11,10,11.80
2012,06,08,11,11,11.80
2012,06,08,11,12,11.80
2012,06,08,11,13,11.90
2012,06,08,11,14,11.90
2012,06,08,11,15,12.00
2012,06,08,11,16,12.10
2012,06,08,12,47,12.80
2012,06,08,12,48,12.70
2012,06,08,12,49,12.70
2012,06,08,12,50,12.70
2012,06,08,12,51,12.60
2012,06,08,12,52,12.60
2012,06,08,12,53,12.60
2012,06,08,12,54,12.60
2012,06,08,12,55,12.60
2012,06,08,12,56,12.70
2012,06,08,13,06,13.20
2012,06,08,13,07,13.20
2012,06,08,13,08,13.20
2012,06,08,13,11,13.30
2012,06,08,13,12,13.30
2012,06,08,13,13,13.30
2012,06,08,13,14,13.30
2012,06,08,13,15,13.30
2012,06,08,13,20,13.50
2012,06,08,13,21,13.50
2012,06,08,13,29,13.70
2012,06,08,13,30,13.70
2012,06,08,13,31,13.60
2012,06,08,13,32,13.60
2012,06,08,13,33,13.50
2012,06,08,13,34,13.50
2012,06,08,13,35,13.50
2012,06,08,13,36,13.50
2012,06,08,13,37,13.60
2012,06,08,13,38,13.60
2012,06,08,13,39,13.50
2012,06,08,13,40,13.50
2012,06,08,13,41,13.50
2012,06,08,13,42,13.60
2012,06,08,13,43,13.60
2012,06,08,13,44,13.70
2012,06,08,13,45,13.60
2012,06,08,13,46,13.40
2012,06,08,13,47,13.30
2012,06,08,13,48,13.10
2012,06,08,13,49,13.00
2012,06,08,13,50,12.90
2012,06,08,13,51,12.80
2012,06,08,13,52,12.70
2012,06,08,13,53,12.70
2012,06,08,13,54,12.60
2012,06,08,13,55,12.60
2012,06,08,13,56,12.60
2012,06,08,13,57,12.60
2012,06,08,13,58,12.60
2012,06,08,13,59,12.60
2012,06,08,14,00,12.60
2012,06,08,14,01,12.60
2012,06,08,14,02,12.50
2012,06,08,14,03,12.50
2012,06,08,14,04,12.40
2012,06,08,14,05,12.40
2012,06,08,14,06,12.40
2012,06,08,14,07,12.40
2012,06,08,14,08,12.40
2012,06,08,14,09,12.40
2012,06,08,14,10,12.40
2012,06,08,14,11,12.40
2012,06,08,14,12,12.50
2012,06,08,14,13,12.50
2012,06,08,14,14,12.60
2012,06,08,14,15,12.60
2012,06,08,14,16,12.70
2012,06,08,14,17,12.70
2012,06,08,14,18,12.70
2012,06,08,14,19,12.70
2012,06,08,14,20,12.70
2012,06,08,14,21,12.80
2012,06,08,14,22,12.80
2012,06,08,14,23,12.80
2012,06,08,14,24,12.90
2012,06,08,14,25,13.00
2012,06,08,14,26,13.00
2012,06,08,14,27,13.10
2012,06,08,14,28,13.20
2012,06,08,14,29,13.20
2012,06,08,14,30,13.20
2012,06,08,14,31,13.20
2012,06,08,14,32,13.20
2012,06,08,14,33,13.10
2012,06,08,14,34,13.20
2012,06,08,14,35,13.20
2012,06,08,14,36,13.20
2012,06,08,14,37,13.30
2012,06,08,14,38,13.30
2012,06,08,14,39,13.30
2012,06,08,14,40,13.40
2012,06,08,14,41,13.50
2012,06,08,14,42,13.60
2012,06,08,14,43,13.70
2012,06,08,14,44,13.80
2012,06,08,14,45,13.90
2012,06,08,14,46,14.00
2012,06,08,14,47,14.20
2012,06,08,14,48,14.30
2012,06,08,14,49,14.50
2012,06,08,14,50,14.50
2012,06,08,14,51,14.60
2012,06,08,14,52,14.60
2012,06,08,14,53,14.50
2012,06,08,14,54,14.60
2012,06,08,14,55,14.60
2012,06,08,14,56,14.60
2012,06,08,14,57,14.70
2012,06,08,14,58,14.80
2012,06,08,14,59,14.80
2012,06,08,15,00,14.80
2012,06,08,15,01,14.90
2012,06,08,15,02,15.00
2012,06,08,15,03,15.10
2012,06,08,15,04,15.20
2012,06,08,15,05,15.20
2012,06,08,15,06,15.20
2012,06,08,15,07,15.20
2012,06,08,15,08,15.10
2012,06,08,15,09,15.00
2012,06,08,15,10,15.00
2012,06,08,15,11,14.90
2012,06,08,15,12,14.90
2012,06,08,15,13,14.90
2012,06,08,15,14,14.90
2012,06,08,15,15,15.00
2012,06,08,15,16,15.10
2012,06,08,15,17,15.30
2012,06,08,15,18,15.50
2012,06,08,15,37,16.00
2012,06,08,15,38,16.00
2012,06,08,15,39,15.80
2012,06,08,15,40,15.80
2012,06,08,15,41,15.70
2012,06,08,15,42,15.60
2012,06,08,15,43,15.50
2012,06,08,15,44,15.40
2012,06,08,15,45,15.30
2012,06,08,15,46,15.20
2012,06,08,15,47,15.00
2012,06,08,15,48,14.90
2012,06,08,15,49,14.80
2012,06,08,15,50,14.70
2012,06,08,15,51,14.60
2012,06,08,15,52,14.60
2012,06,08,15,53,14.50
2012,06,08,15,54,14.40
2012,06,08,15,55,14.30
2012,06,08,15,56,14.30
2012,06,08,15,57,14.20
2012,06,08,15,58,14.20
2012,06,08,15,59,14.20
2012,06,08,16,00,14.20
2012,06,08,16,01,14.20
2012,06,08,16,02,14.20
2012,06,08,16,03,14.20
2012,06,08,16,04,14.20
2012,06,08,16,05,14.20
2012,06,08,16,06,14.20
2012,06,08,16,07,14.30
2012,06,08,16,08,14.30
2012,06,08,16,09,14.30
2012,06,08,16,10,14.30
2012,06,08,16,11,14.30
2012,06,08,16,12,14.30
2012,06,08,16,13,14.40
2012,06,08,16,14,14.40
2012,06,08,16,15,14.40
2012,06,08,16,16,14.40
2012,06,08,16,17,14.40
2012,06,08,16,18,14.40
2012,06,08,16,19,14.40
2012,06,08,16,20,14.40
2012,06,08,16,21,14.50
2012,06,08,16,22,14.50
2012,06,08,16,23,14.50
2012,06,08,16,24,14.60
2012,06,08,16,25,14.60
2012,06,08,16,26,14.60
2012,06,08,16,27,14.60
2012,06,08,16,28,14.60
2012,06,08,16,29,14.70
2012,06,08,16,30,14.70
2012,06,08,16,31,14.70
2012,06,08,16,32,14.70
2012,06,08,16,33,14.80
2012,06,08,16,34,14.90
2012,06,08,16,35,15.00
2012,06,08,16,36,15.20
2012,06,08,16,37,15.30
2012,06,08,16,38,15.40
2012,06,08,16,39,15.60
2012,06,08,16,40,15.70
2012,06,08,16,41,15.80
2012,06,08,16,42,15.80
2012,06,08,16,43,15.90
2012,06,08,16,44,15.90
2012,06,08,16,45,15.90
2012,06,08,16,46,15.90
2012,06,08,16,47,15.90
2012,06,08,16,48,15.90
2012,06,08,16,49,15.80
2012,06,08,16,50,15.70
2012,06,08,16,51,15.70
2012,06,08,16,52,15.60
2012,06,08,16,53,15.50
2012,06,08,16,54,15.40
2012,06,08,16,55,15.30
2012,06,08,16,56,15.20
2012,06,08,16,57,15.10
2012,06,08,16,58,14.90
2012,06,08,16,59,14.80
2012,06,08,17,00,14.70
2012,06,08,17,01,14.60
2012,06,08,17,02,14.40
2012,06,08,17,03,14.30
2012,06,08,17,04,14.20
2012,06,08,17,05,14.00
2012,06,08,17,06,13.90
2012,06,08,17,07,13.80
2012,06,08,17,08,13.60
2012,06,08,17,09,13.50
2012,06,08,17,10,13.40
2012,06,08,17,11,13.30
2012,06,08,17,12,13.20
2012,06,08,17,13,13.10
2012,06,08,17,14,13.10
2012,06,08,17,15,13.00
2012,06,08,17,16,12.90
2012,06,08,17,17,12.80
2012,06,08,17,18,12.80
2012,06,08,17,19,12.80
2012,06,08,17,20,12.70
2012,06,08,17,21,12.70
2012,06,08,17,22,12.70
2012,06,08,17,23,12.70
2012,06,08,17,24,12.70
2012,06,08,17,25,12.60
2012,06,08,17,26,12.60
2012,06,08,17,27,12.60
2012,06,08,17,28,12.60
2012,06,08,17,29,12.60
2012,06,08,17,30,12.60
2012,06,08,17,31,12.60
2012,06,08,17,32,12.60
2012,06,08,17,33,12.60
2012,06,08,17,34,12.60
2012,06,08,17,35,12.60
2012,06,08,17,36,12.60
2012,06,08,17,37,12.60
2012,06,08,17,38,12.50
2012,06,08,17,39,12.50
2012,06,08,17,40,12.50
2012,06,08,17,41,12.50
2012,06,08,17,42,12.50
2012,06,08,17,43,12.50
2012,06,08,17,44,12.40
2012,06,08,17,45,12.40
2012,06,08,17,46,12.40
2012,06,08,17,47,12.40
2012,06,08,17,48,12.40
2012,06,08,17,49,12.40
2012,06,08,17,50,12.40
2012,06,08,17,51,12.40
2012,06,08,17,52,12.40
2012,06,08,17,53,12.40
2012,06,08,17,54,12.50
2012,06,08,17,55,12.50
2012,06,08,17,56,12.50
2012,06,08,17,57,12.50
2012,06,08,17,58,12.50
2012,06,08,17,59,12.50
2012,06,08,18,00,12.50
2012,06,08,18,01,12.50
2012,06,08,18,02,12.60
2012,06,08,18,03,12.60
2012,06,08,18,04,12.60
2012,06,08,18,05,12.60
2012,06,08,18,06,12.60
2012,06,08,18,07,12.60
2012,06,08,18,08,12.60
2012,06,08,18,09,12.60
2012,06,08,18,10,12.60
2012,06,08,18,11,12.60
2012,06,08,18,12,12.60
2012,06,08,18,13,12.60
2012,06,08,18,14,12.60
2012,06,08,18,15,12.60
2012,06,08,18,16,12.60
2012,06,08,18,17,12.60
2012,06,08,18,18,12.60
2012,06,08,18,19,12.60
2012,06,08,18,20,12.60
2012,06,08,18,21,12.60
2012,06,08,18,22,12.60
2012,06,08,18,23,12.60
2012,06,08,18,24,12.60
2012,06,08,18,25,12.60
2012,06,08,18,26,12.60
2012,06,08,18,27,12.60
2012,06,08,18,28,12.60
2012,06,08,18,29,12.60
2012,06,08,18,30,12.60
2012,06,08,18,31,12.60
2012,06,08,18,32,12.60
2012,06,08,18,33,12.60
2012,06,08,18,34,12.60
2012,06,08,18,35,12.60
2012,06,08,18,36,12.60
2012,06,08,18,37,12.60
2012,06,08,18,38,12.60
2012,06,08,18,39,12.60
2012,06,08,18,40,12.60
2012,06,08,18,41,12.60
2012,06,08,18,42,12.60
2012,06,08,18,43,12.60
2012,06,08,18,44,12.60
2012,06,08,18,45,12.60
2012,06,08,18,46,12.70
2012,06,08,18,47,12.70
2012,06,08,18,48,12.70
2012,06,08,18,49,12.70
2012,06,08,18,50,12.70
2012,06,08,18,51,12.70
2012,06,08,18,52,12.70
2012,06,08,18,53,12.70
2012,06,08,18,54,12.70
2012,06,08,18,55,12.70
2012,06,08,18,56,12.70
2012,06,08,18,57,12.80
2012,06,08,18,58,12.80
2012,06,08,18,59,12.80
2012,06,08,19,00,12.80
2012,06,08,19,01,12.80
2012,06,08,19,02,12.80
2012,06,08,19,03,12.80
2012,06,08,19,04,12.80
2012,06,08,19,05,12.90
2012,06,08,19,06,12.90
2012,06,08,19,07,12.90
2012,06,08,19,08,12.90
2012,06,08,19,09,12.90
2012,06,08,19,10,12.90
2012,06,08,19,11,12.90
2012,06,08,19,12,12.90
2012,06,08,19,13,12.90
2012,06,08,19,14,12.90
2012,06,08,19,15,12.90
2012,06,08,19,16,12.90
2012,06,08,19,17,12.90
2012,06,08,19,18,12.90
2012,06,08,19,19,12.90
2012,06,08,19,20,12.90
2012,06,08,19,21,12.90
2012,06,08,19,22,12.90
2012,06,08,19,23,12.90
2012,06,08,19,24,12.90
2012,06,08,19,25,12.90
2012,06,08,19,26,12.90
2012,06,08,19,27,12.90
2012,06,08,19,28,12.90
2012,06,08,19,29,12.80
2012,06,08,19,30,12.90
2012,06,08,19,31,12.90
2012,06,08,19,32,12.90
2012,06,08,19,33,12.80
2012,06,08,19,34,12.80
2012,06,08,19,35,12.80
2012,06,08,19,36,12.80
2012,06,08,19,37,12.80
2012,06,08,19,38,12.80
2012,06,08,19,39,12.80
2012,06,08,19,40,12.80
2012,06,08,19,41,12.80
2012,06,08,19,42,12.80
2012,06,08,19,43,12.80
2012,06,08,19,44,12.80
2012,06,08,19,45,12.80
2012,06,08,19,46,12.80
2012,06,08,19,47,12.80
2012,06,08,19,48,12.80
2012,06,08,19,49,12.80
2012,06,08,19,50,12.80
2012,06,08,19,51,12.80